{"data":{"norad_id":51714,"intl_designator":"2022-016A","name":"STARLINK-3528","alt_names":[],"object_type":"PAYLOAD","status":"ACTIVE","operator":null,"country":"US","launch_date":"2022-02-21","launch_site_code":"AFETR","launch_vehicle":null,"mission":null,"orbit_class":"UNKNOWN","rcs_meters":null,"size_class":null,"mass_kg":null,"dimensions":null,"purposes":["comms"],"wikipedia_slug":null,"has_3d_model":false,"image_url":null,"decayed_at":null,"tle_current":{"epoch":"2026-09-20T02:41:36.652128Z","epoch_age_seconds":81980,"freshness":"FRESH","line1":"1 51714U 22016A   26263.11222977 -.00000711  00000+0 -94738-5 0  9995","line2":"2 51714  53.1586 165.3333 0001040  90.4918 269.6204 15.35394316252927","mean_motion":15.35394316,"eccentricity":0.000104,"inclination_deg":53.1586,"raan_deg":165.3333,"arg_perigee_deg":90.4918,"mean_anomaly_deg":269.6204,"bstar":-9.4738e-6,"rev_number":25292,"period_min":93.786982600761,"perigee_km":459.03837830668,"apogee_km":460.46065870253,"semimajor_km":6837.8865185046,"source":"CELESTRAK","updated_at":"2026-09-20T09:00:39.596600Z"}}}